| time (UTC) | temp C | wind direction | speed KPH | gust KPH | rain 1hr cm | rain 24hr cm | rain mn cm | humidity % | barometer mb |
| 20260510174525 | 7 | 48 | 12.9 | 29.0 | 0.00 | 0.00 | 0.00 | 42 | 1020.1 |
| 20260510173009 | 7 | 359 | 12.9 | 29.0 | 0.00 | 0.00 | 0.00 | 43 | 1020.0 |
| 20260510171526 | 7 | 328 | 6.4 | 24.1 | 0.00 | 0.00 | 0.00 | 47 | 1020.1 |
| 20260510170020 | 7 | 340 | 9.7 | 33.8 | 0.00 | 0.00 | 0.00 | 47 | 1020.1 |
| 20260510164524 | 7 | 359 | 14.5 | 29.0 | 0.00 | 0.00 | 0.00 | 49 | 1020.2 |
| 20260510163026 | 7 | 333 | 4.8 | 32.2 | 0.00 | 0.00 | 0.00 | 48 | 1020.0 |
| 20260510161522 | 6 | 352 | 8.0 | 20.9 | 0.00 | 0.00 | 0.00 | 49 | 1019.7 |
| 20260510160031 | 6 | 67 | 11.3 | 27.4 | 0.00 | 0.00 | 0.00 | 49 | 1019.7 |
| 20260510154529 | 6 | 340 | 8.0 | 25.7 | 0.00 | 0.00 | 0.00 | 49 | 1019.5 |
| 20260510153021 | 6 | 347 | 19.3 | 30.6 | 0.00 | 0.00 | 0.00 | 51 | 1019.3 |
| 20260510151526 | 6 | 80 | 8.0 | 27.4 | 0.00 | 0.00 | 0.00 | 55 | 1019.2 |
| 20260510150016 | 6 | 345 | 17.7 | 27.4 | 0.00 | 0.00 | 0.00 | 55 | 1019.1 |
| 20260510144523 | 6 | 330 | 6.4 | 24.1 | 0.00 | 0.00 | 0.00 | 57 | 1018.9 |
| 20260510143025 | 6 | 345 | 12.9 | 24.1 | 0.00 | 0.00 | 0.00 | 56 | 1018.7 |
| 20260510141526 | 6 | 352 | 14.5 | 29.0 | 0.00 | 0.00 | 0.00 | 55 | 1019.0 |
| 20260510140027 | 5 | 41 | 14.5 | 25.7 | 0.00 | 0.00 | 0.00 | 57 | 1018.5 |
| 20260510134517 | 5 | 64 | 11.3 | 25.7 | 0.00 | 0.00 | 0.00 | 58 | 1018.4 |
| 20260510133022 | 5 | 354 | 11.3 | 32.2 | 0.00 | 0.00 | 0.00 | 61 | 1017.7 |
| 20260510131524 | 5 | 13 | 8.0 | 25.7 | 0.00 | 0.00 | 0.00 | 61 | 1018.1 |
| 20260510130027 | 4 | 346 | 11.3 | 29.0 | 0.00 | 0.00 | 0.00 | 63 | 1018.3 |
| 20260510124525 | 4 | 351 | 16.1 | 29.0 | 0.00 | 0.00 | 0.00 | 63 | 1017.9 |
| 20260510123025 | 4 | 339 | 8.0 | 30.6 | 0.00 | 0.00 | 0.00 | 64 | 1017.8 |
| 20260510121522 | 4 | 340 | 12.9 | 29.0 | 0.00 | 0.00 | 0.00 | 63 | 1017.7 |
| 20260510120024 | 4 | 354 | 14.5 | 29.0 | 0.00 | 0.00 | 0.00 | 64 | 1017.5 |
| 20260510114536 | 4 | 349 | 19.3 | 29.0 | 0.00 | 0.00 | 0.00 | 64 | 1017.1 |
| 20260510113039 | 4 | 347 | 9.7 | 17.7 | 0.00 | 0.00 | 0.00 | 64 | 1016.8 |
| 20260510111527 | 4 | 350 | 9.7 | 19.3 | 0.00 | 0.00 | 0.00 | 64 | 1016.7 |
| 20260510104510 | 5 | 358 | 16.1 | 25.7 | 0.00 | 0.00 | 0.00 | 63 | 1016.1 |
| 20260510103014 | 5 | 329 | 9.7 | 19.3 | 0.00 | 0.00 | 0.00 | 63 | 1015.9 |
| 20260510100031 | 5 | 321 | 14.5 | 22.5 | 0.00 | 0.00 | 0.00 | 63 | 1015.4 |
| 20260510094508 | 5 | 347 | 12.9 | 25.7 | 0.00 | 0.00 | 0.00 | 61 | 1010.7 |
| 20260510093014 | 5 | 307 | 12.9 | 19.3 | 0.00 | 0.00 | 0.00 | 61 | 1014.9 |
| 20260510091517 | 6 | 348 | 9.7 | 17.7 | 0.00 | 0.00 | 0.00 | 58 | 1014.8 |
| 20260510090020 | 6 | 350 | 11.3 | 27.4 | 0.00 | 0.00 | 0.00 | 58 | 1014.6 |
| 20260510084527 | 6 | 340 | 9.7 | 16.1 | 0.00 | 0.00 | 0.00 | 57 | 1014.5 |
| 20260510083015 | 6 | 346 | 9.7 | 20.9 | 0.00 | 0.00 | 0.00 | 56 | 1014.5 |
| 20260510081516 | 6 | 311 | 9.7 | 19.3 | 0.00 | 0.00 | 0.00 | 55 | 1014.2 |
| 20260510080021 | 6 | 339 | 11.3 | 17.7 | 0.00 | 0.00 | 0.00 | 55 | 1014.1 |
| 20260510074533 | 7 | 339 | 11.3 | 16.1 | 0.00 | 0.00 | 0.00 | 54 | 1014.1 |
| 20260510073025 | 7 | 347 | 14.5 | 25.7 | 0.00 | 0.00 | 0.00 | 53 | 1014.0 |
| 20260510071517 | 7 | 347 | 11.3 | 22.5 | 0.00 | 0.00 | 0.00 | 52 | 1013.9 |
| 20260510070016 | 7 | 352 | 12.9 | 22.5 | 0.00 | 0.00 | 0.00 | 50 | 1013.7 |
| 20260510064521 | 7 | 338 | 14.5 | 22.5 | 0.00 | 0.00 | 0.00 | 49 | 1013.6 |
| 20260510063023 | 7 | 322 | 11.3 | 19.3 | 0.00 | 0.00 | 0.00 | 48 | 1013.5 |
| 20260510061529 | 7 | 301 | 11.3 | 14.5 | 0.00 | 0.00 | 0.00 | 46 | 1013.5 |
| 20260510060012 | 7 | 326 | 9.7 | 14.5 | 0.00 | 0.00 | 0.00 | 45 | 1013.4 |
| 20260510054518 | 8 | 326 | 11.3 | 16.1 | 0.00 | 0.00 | 0.00 | 45 | 1013.3 |
| 20260510053022 | 8 | 326 | 6.4 | 17.7 | 0.00 | 0.00 | 0.00 | 44 | 1013.2 |
| 20260510051525 | 8 | 335 | 12.9 | 16.1 | 0.00 | 0.00 | 0.00 | 44 | 1013.1 |
| 20260510050027 | 7 | 313 | 12.9 | 16.1 | 0.00 | 0.00 | 0.00 | 44 | 1013.0 |
| 20260510044515 | 7 | 301 | 12.9 | 16.1 | 0.00 | 0.00 | 0.00 | 43 | 1012.9 |
| 20260510043021 | 7 | 295 | 11.3 | 14.5 | 0.00 | 0.00 | 0.00 | 42 | 1012.8 |
| 20260510041523 | 8 | 288 | 11.3 | 14.5 | 0.00 | 0.00 | 0.00 | 41 | 1012.7 |
| 20260510040028 | 8 | 284 | 9.7 | 11.3 | 0.00 | 0.00 | 0.00 | 41 | 1012.6 |
| 20260510034529 | 8 | 284 | 6.4 | 16.1 | 0.00 | 0.00 | 0.00 | 40 | 1012.6 |
| 20260510033020 | 8 | 285 | 8.0 | 17.7 | 0.00 | 0.00 | 0.00 | 40 | 1012.6 |
| 20260510031528 | 8 | 284 | 8.0 | 16.1 | 0.00 | 0.00 | 0.00 | 40 | 1012.5 |
| 20260510030023 | 8 | 285 | 9.7 | 12.9 | 0.00 | 0.00 | 0.00 | 40 | 1012.5 |
| 20260510024527 | 8 | 284 | 9.7 | 11.3 | 0.00 | 0.00 | 0.00 | 40 | 1012.1 |
| 20260510023026 | 9 | 298 | 9.7 | 14.5 | 0.00 | 0.00 | 0.00 | 38 | 1012.1 |
| 20260510021532 | 9 | 335 | 8.0 | 16.1 | 0.00 | 0.00 | 0.00 | 38 | 1012.1 |
| 20260510020028 | 10 | 335 | 9.7 | 20.9 | 0.00 | 0.00 | 0.00 | 37 | 1012.0 |
| 20260510014526 | 10 | 350 | 4.8 | 19.3 | 0.00 | 0.00 | 0.00 | 36 | 1011.7 |
| 20260510013014 | 10 | 360 | 17.7 | 29.0 | 0.00 | 0.00 | 0.00 | 35 | 1009.7 |
| 20260510011520 | 10 | 1 | 11.3 | 27.4 | 0.00 | 0.00 | 0.00 | 34 | 1006.7 |
| 20260510010023 | 10 | 359 | 17.7 | 27.4 | 0.00 | 0.00 | 0.00 | 34 | 1006.3 |
| 20260510004509 | 11 | 1 | 6.4 | 22.5 | 0.00 | 0.00 | 0.00 | 33 | 1010.6 |
| 20260510003014 | 11 | 356 | 8.0 | 29.0 | 0.00 | 0.00 | 0.00 | 32 | 1010.4 |
| 20260510001521 | 11 | 352 | 16.1 | 32.2 | 0.00 | 0.00 | 0.00 | 31 | 1010.3 |
| 20260510000027 | 11 | 75 | 4.8 | 32.2 | 0.00 | 0.00 | 0.00 | 31 | 1010.0 |
| 20260509234525 | 12 | 328 | 12.9 | 38.6 | 0.00 | 0.00 | 0.00 | 30 | 1009.7 |
| 20260509233011 | 11 | 350 | 22.5 | 41.8 | 0.00 | 0.00 | 0.00 | 30 | 1005.2 |
| 20260509231517 | 12 | 336 | 11.3 | 32.2 | 0.00 | 0.00 | 0.00 | 31 | 1009.3 |
| 20260509230027 | 12 | 360 | 22.5 | 35.4 | 0.00 | 0.00 | 0.00 | 30 | 1009.0 |
| 20260509224522 | 11 | 340 | 17.7 | 32.2 | 0.00 | 0.00 | 0.00 | 31 | 1008.9 |
| 20260509223024 | 11 | 359 | 22.5 | 40.2 | 0.00 | 0.00 | 0.00 | 31 | 1008.9 |
| 20260509221510 | 12 | 1 | 20.9 | 37.0 | 0.00 | 0.00 | 0.00 | 30 | 1008.5 |
| 20260509220017 | 12 | 3 | 11.3 | 43.5 | 0.00 | 0.00 | 0.00 | 29 | 1008.4 |
| 20260509214534 | 12 | 342 | 25.7 | 37.0 | 0.00 | 0.00 | 0.00 | 29 | 1008.2 |
| 20260509213024 | 12 | 340 | 12.9 | 32.2 | 0.00 | 0.00 | 0.00 | 30 | 1008.0 |
| 20260509211511 | 11 | 339 | 22.5 | 35.4 | 0.00 | 0.00 | 0.00 | 30 | 1007.9 |
| 20260509210015 | 12 | 55 | 14.5 | 29.0 | 0.00 | 0.00 | 0.00 | 30 | 1006.7 |
| 20260509204529 | 12 | 357 | 8.0 | 24.1 | 0.00 | 0.00 | 0.00 | 31 | 1007.8 |
| 20260509203023 | 12 | 359 | 9.7 | 35.4 | 0.00 | 0.00 | 0.00 | 31 | 1007.8 |
| 20260509201527 | 11 | 356 | 12.9 | 32.2 | 0.00 | 0.00 | 0.00 | 32 | 1007.6 |
| 20260509200013 | 11 | 68 | 22.5 | 38.6 | 0.00 | 0.00 | 0.00 | 31 | 1007.2 |
| 20260509194522 | 11 | 341 | 16.1 | 32.2 | 0.00 | 0.00 | 0.00 | 31 | 1007.5 |
| 20260509193034 | 11 | 53 | 14.5 | 38.6 | 0.00 | 0.00 | 0.00 | 32 | 1007.4 |
| 20260509191526 | 11 | 346 | 17.7 | 33.8 | 0.00 | 0.00 | 0.00 | 32 | 1007.4 |
| 20260509190027 | 11 | 359 | 8.0 | 35.4 | 0.00 | 0.00 | 0.00 | 32 | 1005.6 |
| 20260509184518 | 10 | 10 | 24.1 | 35.4 | 0.00 | 0.00 | 0.00 | 31 | 1007.4 |
| 20260509183004 | 10 | 12 | 24.1 | 40.2 | 0.00 | 0.00 | 0.00 | 33 | 1005.7 |
| 20260509181508 | 10 | 355 | 19.3 | 35.4 | 0.00 | 0.00 | 0.00 | 34 | 1007.3 |
| 20260509180024 | 10 | 91 | 24.1 | 40.2 | 0.00 | 0.00 | 0.00 | 34 | 1007.0 |